Regional Weather Roundup
Issued by NWS

Home | Current Version | Previous Version | Text Only | Print | Product List | Glossary On
Versions: 1 2 3 4 5 6 7 8 9 10 11 12 13 14 15 16 17 18 19 20 21 22 23 24 25 26 27 28 29 30 31 32 33 34 35 36 37 38 39 40 41 42 43 44 45 46 47 48 49 50
000
ASUS43 KLMK 251410
RWRKY
KENTUCKY REGIONAL WEATHER ROUNDUP
NATIONAL WEATHER SERVICE LOUISVILLE KY
1000 AM EDT FRI JUL 25 2014

NOTE "FAIR" INDICATES FEW OR NO CLOUDS BELOW 12,000 FEET
WITH NO SIGNIFICANT WEATHER AND/OR OBSTRUCTIONS TO VISIBILITY.

KYZ001>023-026-027-061>063-070>075-251500-
WESTERN AND SOUTH CENTRAL KENTUCKY

CITY           SKY/WX    TMP DP  RH WIND       PRES   REMARKS
PADUCAH        PTSUNNY   73  62  68 E7        30.08R
HENDERSON      PTSUNNY   68  61  77 SE6       30.08F
OWENSBORO      MOSUNNY   71  58  63 S6        30.09S
HOPKINSVILLE   MOSUNNY   70  60  69 VRB1      30.10R
BOWLING GREEN  MOSUNNY   70  60  70 CALM      30.09F
GLASGOW        SUNNY     69  60  73 CALM      30.10S
$$

KYZ024-025-028>034-038-045-046-053-251500-
NORTH CENTRAL KENTUCKY

CITY           SKY/WX    TMP DP  RH WIND       PRES   REMARKS
LOUISVILLE/SDF PTSUNNY   71  56  58 SE5       30.09S
LOUISVILLE/LOU MOSUNNY   70  56  61 S5        30.10R
FORT KNOX      MOSUNNY   68  58  71 E6        30.09S
$$

KYZ035>037-039>044-047>052-055>060-089>105-251500-
NORTHEAST KENTUCKY

CITY           SKY/WX    TMP DP  RH WIND       PRES   REMARKS
LEXINGTON      SUNNY     70  58  65 SE5       30.10S
COVINGTON      PTSUNNY   70  53  54 SE7       30.10S
FRANKFORT      SUNNY     69  58  67 CALM      30.10R
$$

KYZ054-064>069-076>088-106>120-251500-
SOUTHEAST KENTUCKY

CITY           SKY/WX    TMP DP  RH WIND       PRES   REMARKS
JACKSON        FOG       61  59  93 CALM      30.13S VSB 1/4
LONDON         CLOUDY    64  60  87 E7        30.13S
SOMERSET       CLOUDY    59  59 100 E5        30.12F FOG
MIDDLESBORO    CLOUDY    66  60  81 NE5       30.15R
MONTICELLO     CLOUDY    64  63  94 NE5       30.12S FOG
$$



USA.gov is the U.S. government's official web portal to all federal, state and local government web resources and services.